This is the latest recevied weather packets stored in our database for station/object DG7AA-13. If no packets are shown the sender has not sent any weather packets the latest 10 day(s).
| Time | Temp. | Humidity | Pressure | Rain* | Wind** | Luminosity | Snow |
|---|---|---|---|---|---|---|---|
| 1777392924 | 15° C | 32% | - | 0 mm | - | - | - |
| 1777392325 | 15.56° C | 32% | - | 0 mm | - | - | - |
| 1777391722 | 15.56° C | 32% | - | 0 mm | - | - | - |
| 1777391122 | 16.11° C | 33% | - | 0 mm | - | - | - |
| 1777390530 | 16.11° C | 32% | - | 0 mm | - | - | - |
| 1777389925 | 16.11° C | 33% | - | 0 mm | - | - | - |
| 1777389345 | 16.11° C | 32% | - | 0 mm | - | - | - |
| 1777388133 | 16.11° C | 35% | - | 0 mm | - | - | - |
| 1777387522 | 16.11° C | 34% | - | 0 mm | - | - | - |
| 1777386930 | 16.67° C | 36% | - | 0 mm | - | - | - |
| 1777386322 | 16.67° C | 36% | - | 0 mm | - | - | - |
| 1777385730 | 17.22° C | 37% | - | 0 mm | - | - | - |
| 1777385122 | 17.22° C | 37% | - | 0 mm | - | - | - |
| 1777384530 | 17.78° C | 35% | - | 0 mm | - | - | - |
| 1777383925 | 17.78° C | 35% | - | 0 mm | - | - | - |
| 1777383330 | 17.22° C | 37% | - | 0 mm | - | - | - |
| 1777382725 | 17.78° C | 37% | - | 0 mm | - | - | - |
| 1777382123 | 17.78° C | 37% | - | 0 mm | - | - | - |
| 1777381526 | 17.78° C | 38% | - | 0 mm | - | - | - |
| 1777380931 | 17.22° C | 39% | - | 0 mm | - | - | - |
| 1777380323 | 18.33° C | 38% | - | 0 mm | - | - | - |
| 1777379733 | 16.67° C | 41% | - | 0 mm | - | - | - |
| 1777379122 | 16.11° C | 41% | - | 0 mm | - | - | - |
| 1777378522 | 16.11° C | 42% | - | 0 mm | - | - | - |
| 1777377922 | 16.11° C | 42% | - | 0 mm | - | - | - |
* Rain latest hour (hover to see other rain measurements)
** Current wind speed in m/s (hover to see current wind gust speed)